Time,TemperatureF,DewpointF,PressureIn,WindDirection,WindDirectionDegrees,WindSpeedMPH,WindSpeedGustMPH,Humidity,HourlyPrecipIn,Conditions,Clouds,dailyrainin,SolarRadiationWatts/m^2,SoftwareType,DateUTC
2013-04-30 00:02:00,78.0,11.0,29.75,SSW,197,6.0,9.0,7,-99.99,,,-99.99,0.000000,,2013-04-30 06:02:00,
2013-04-30 00:12:00,78.0,11.0,29.75,SSW,197,6.0,9.0,7,-99.99,,,-99.99,0.000000,,2013-04-30 06:12:00,
2013-04-30 00:21:00,78.0,11.0,29.75,SSW,197,6.0,9.0,7,-99.99,,,-99.99,0.000000,,2013-04-30 06:21:00,
2013-04-30 00:42:00,78.0,12.0,29.75,WSW,243,5.0,13.0,8,-99.99,,,-99.99,0.000000,,2013-04-30 06:42:00,
2013-04-30 00:52:00,78.0,12.0,29.75,WSW,243,5.0,13.0,8,-99.99,,,-99.99,0.000000,,2013-04-30 06:52:00,
2013-04-30 01:01:00,81.0,15.0,29.75,West,280,14.0,23.0,8,-99.99,,,-99.99,0.000000,,2013-04-30 07:01:00,
2013-04-30 01:11:00,81.0,15.0,29.74,WNW,286,13.0,19.0,8,-99.99,,,-99.99,0.000000,,2013-04-30 07:11:00,
2013-04-30 01:21:00,81.0,15.0,29.74,WNW,286,13.0,19.0,8,-99.99,,,-99.99,0.000000,,2013-04-30 07:21:00,
2013-04-30 01:31:00,81.0,15.0,29.74,WNW,286,13.0,19.0,8,-99.99,,,-99.99,0.000000,,2013-04-30 07:31:00,
2013-04-30 01:42:00,80.0,16.0,29.74,WNW,284,14.0,22.0,8,-99.99,,,-99.99,0.000000,,2013-04-30 07:42:00,
2013-04-30 01:52:00,80.0,16.0,29.74,WNW,284,14.0,22.0,8,-99.99,,,-99.99,0.000000,,2013-04-30 07:52:00,
2013-04-30 02:02:00,80.0,16.0,29.74,WNW,294,12.0,23.0,9,-99.99,,,-99.99,0.000000,,2013-04-30 08:02:00,
2013-04-30 02:11:00,80.0,17.0,29.74,WNW,293,15.0,26.0,9,-99.99,,,-99.99,0.000000,,2013-04-30 08:11:00,
2013-04-30 02:22:00,80.0,17.0,29.74,WNW,293,15.0,26.0,9,-99.99,,,-99.99,0.000000,,2013-04-30 08:22:00,
2013-04-30 02:30:00,79.0,17.0,29.74,West,281,14.0,25.0,9,-99.99,,,-99.99,0.000000,,2013-04-30 08:30:00,
2013-04-30 02:32:00,80.0,17.0,29.74,WNW,288,15.0,24.0,9,-99.99,,,-99.99,0.000000,,2013-04-30 08:32:00,
2013-04-30 02:42:00,79.0,17.0,29.74,WNW,284,14.0,20.0,9,-99.99,,,-99.99,0.000000,,2013-04-30 08:42:00,
2013-04-30 02:52:00,79.0,17.0,29.74,WNW,284,14.0,20.0,9,-99.99,,,-99.99,0.000000,,2013-04-30 08:52:00,
2013-04-30 03:01:00,79.0,17.0,29.74,West,281,14.0,25.0,9,-99.99,,,-99.99,0.000000,,2013-04-30 09:01:00,
2013-04-30 03:11:00,79.0,17.0,29.74,West,281,14.0,25.0,9,-99.99,,,-99.99,0.000000,,2013-04-30 09:11:00,
2013-04-30 03:22:00,79.0,17.0,29.74,West,281,14.0,25.0,9,-99.99,,,-99.99,0.000000,,2013-04-30 09:22:00,
2013-04-30 03:30:00,75.0,16.0,29.75,NNW,335,11.0,18.0,10,-99.99,,,-99.99,0.000000,,2013-04-30 09:30:00,
2013-04-30 04:03:00,75.0,16.0,29.75,NNW,335,11.0,18.0,10,-99.99,,,-99.99,0.000000,,2013-04-30 10:03:00,
2013-04-30 04:11:00,75.0,16.0,29.75,NNW,335,11.0,18.0,10,-99.99,,,-99.99,0.000000,,2013-04-30 10:11:00,
2013-04-30 04:22:00,75.0,16.0,29.75,NNW,335,11.0,18.0,10,-99.99,,,-99.99,0.000000,,2013-04-30 10:22:00,
2013-04-30 04:30:00,76.0,17.0,29.76,NW,307,9.0,18.0,10,-99.99,,,-99.99,0.000000,,2013-04-30 10:30:00,
2013-04-30 04:41:00,76.0,17.0,29.76,NW,306,11.0,18.0,10,-99.99,,,-99.99,0.000000,,2013-04-30 10:41:00,
2013-04-30 04:52:00,76.0,17.0,29.76,NW,306,11.0,18.0,10,-99.99,,,-99.99,0.000000,,2013-04-30 10:52:00,
2013-04-30 05:02:00,76.0,17.0,29.76,NW,307,9.0,18.0,10,-99.99,,,-99.99,0.000000,,2013-04-30 11:02:00,
2013-04-30 05:11:00,76.0,17.0,29.76,NW,307,9.0,18.0,10,-99.99,,,-99.99,0.000000,,2013-04-30 11:11:00,
2013-04-30 05:21:00,76.0,17.0,29.76,NW,307,9.0,18.0,10,-99.99,,,-99.99,0.000000,,2013-04-30 11:21:00,
2013-04-30 05:42:00,69.0,14.0,29.78,East,81,3.0,7.0,11,-99.99,,,-99.99,0.000000,,2013-04-30 11:42:00,
2013-04-30 05:51:00,69.0,14.0,29.78,East,81,3.0,7.0,11,-99.99,,,-99.99,0.000000,,2013-04-30 11:51:00,
2013-04-30 06:01:00,69.0,14.0,29.78,East,81,3.0,7.0,11,-99.99,,,-99.99,0.000000,,2013-04-30 12:01:00,
2013-04-30 06:11:00,69.0,14.0,29.78,East,81,3.0,7.0,11,-99.99,,,-99.99,0.000000,,2013-04-30 12:11:00,
2013-04-30 07:41:00,58.0,9.0,29.82,South,180,7.0,10.0,14,-99.99,,,-99.99,123.430000,,2013-04-30 13:41:00,
2013-04-30 07:52:00,58.0,9.0,29.82,South,180,7.0,10.0,14,-99.99,,,-99.99,123.430000,,2013-04-30 13:52:00,
2013-04-30 08:02:00,58.0,9.0,29.82,South,180,7.0,10.0,14,-99.99,,,-99.99,123.430000,,2013-04-30 14:02:00,
2013-04-30 08:11:00,58.0,9.0,29.82,South,180,7.0,10.0,14,-99.99,,,-99.99,123.430000,,2013-04-30 14:11:00,
2013-04-30 10:02:00,82.0,21.0,29.84,NW,322,9.0,15.0,10,-99.99,,,-99.99,570.419983,,2013-04-30 16:02:00,
2013-04-30 10:12:00,83.0,21.0,29.84,North,353,9.0,15.0,9,-99.99,,,-99.99,617.840027,,2013-04-30 16:12:00,
2013-04-30 10:23:00,83.0,21.0,29.84,North,353,9.0,15.0,9,-99.99,,,-99.99,617.840027,,2013-04-30 16:23:00,
2013-04-30 10:33:00,84.0,21.0,29.84,North,9,8.0,15.0,9,-99.99,,,-99.99,661.070007,,2013-04-30 16:33:00,
2013-04-30 10:42:00,84.0,21.0,29.84,North,1,9.0,14.0,9,-99.99,,,-99.99,702.909973,,2013-04-30 16:42:00,
2013-04-30 10:52:00,84.0,21.0,29.84,North,1,9.0,14.0,9,-99.99,,,-99.99,702.909973,,2013-04-30 16:52:00,
2013-04-30 11:02:00,84.0,21.0,29.84,NNE,30,8.0,14.0,9,-99.99,,,-99.99,741.270020,,2013-04-30 17:02:00,
2013-04-30 11:12:00,85.0,21.0,29.84,NNW,346,6.0,14.0,9,-99.99,,,-99.99,731.500000,,2013-04-30 17:12:00,
2013-04-30 11:22:00,85.0,21.0,29.84,NNW,346,6.0,14.0,9,-99.99,,,-99.99,731.500000,,2013-04-30 17:22:00,
2013-04-30 11:32:00,85.0,21.0,29.84,NNW,346,6.0,14.0,9,-99.99,,,-99.99,731.500000,,2013-04-30 17:32:00,
2013-04-30 11:42:00,86.0,21.0,29.84,North,2,6.0,16.0,9,-99.99,,,-99.99,822.159973,,2013-04-30 17:42:00,
2013-04-30 11:52:00,86.0,21.0,29.84,North,2,6.0,16.0,9,-99.99,,,-99.99,822.159973,,2013-04-30 17:52:00,
2013-04-30 12:01:00,86.0,21.0,29.84,North,352,7.0,12.0,9,-99.99,,,-99.99,872.359985,,2013-04-30 18:01:00,
2013-04-30 12:11:00,86.0,21.0,29.84,North,3,6.0,15.0,8,-99.99,,,-99.99,897.469971,,2013-04-30 18:11:00,
2013-04-30 12:22:00,86.0,21.0,29.84,North,3,6.0,15.0,8,-99.99,,,-99.99,897.469971,,2013-04-30 18:22:00,
2013-04-30 12:32:00,87.0,21.0,29.83,NW,309,10.0,19.0,8,-99.99,,,-99.99,916.299988,,2013-04-30 18:32:00,
2013-04-30 12:42:00,88.0,21.0,29.83,WNW,300,11.0,23.0,8,-99.99,,,-99.99,934.429993,,2013-04-30 18:42:00,
2013-04-30 12:52:00,88.0,21.0,29.83,WNW,300,11.0,23.0,8,-99.99,,,-99.99,934.429993,,2013-04-30 18:52:00,
2013-04-30 13:01:00,88.0,21.0,29.82,NW,307,12.0,23.0,8,-99.99,,,-99.99,946.979980,,2013-04-30 19:01:00,
2013-04-30 13:11:00,87.0,20.0,29.82,WNW,301,11.0,23.0,8,-99.99,,,-99.99,955.349976,,2013-04-30 19:11:00,
2013-04-30 13:22:00,87.0,20.0,29.82,WNW,301,11.0,23.0,8,-99.99,,,-99.99,955.349976,,2013-04-30 19:22:00,
2013-04-30 13:32:00,88.0,19.0,29.81,WNW,285,9.0,20.0,7,-99.99,,,-99.99,959.530029,,2013-04-30 19:32:00,
2013-04-30 13:42:00,89.0,19.0,29.80,WNW,299,11.0,19.0,7,-99.99,,,-99.99,957.440002,,2013-04-30 19:42:00,
2013-04-30 13:52:00,89.0,19.0,29.80,WNW,299,11.0,19.0,7,-99.99,,,-99.99,957.440002,,2013-04-30 19:52:00,
2013-04-30 14:02:00,89.0,19.0,29.80,WNW,299,11.0,19.0,7,-99.99,,,-99.99,957.440002,,2013-04-30 20:02:00,
2013-04-30 14:11:00,89.0,17.0,29.79,WNW,287,12.0,23.0,7,-99.99,,,-99.99,949.070007,,2013-04-30 20:11:00,
2013-04-30 14:21:00,89.0,17.0,29.79,WNW,287,12.0,23.0,7,-99.99,,,-99.99,949.070007,,2013-04-30 20:21:00,
2013-04-30 14:32:00,89.0,18.0,29.79,West,267,9.0,21.0,7,-99.99,,,-99.99,936.520020,,2013-04-30 20:32:00,
2013-04-30 14:42:00,90.0,18.0,29.78,West,278,12.0,25.0,7,-99.99,,,-99.99,916.989990,,2013-04-30 20:42:00,
2013-04-30 14:52:00,90.0,18.0,29.78,West,278,12.0,25.0,7,-99.99,,,-99.99,916.989990,,2013-04-30 20:52:00,
2013-04-30 15:02:00,90.0,18.0,29.78,West,278,12.0,25.0,7,-99.99,,,-99.99,916.989990,,2013-04-30 21:02:00,
2013-04-30 15:11:00,90.0,18.0,29.77,SW,225,11.0,22.0,7,-99.99,,,-99.99,873.760010,,2013-04-30 21:11:00,
2013-04-30 15:22:00,90.0,18.0,29.77,SW,225,11.0,22.0,7,-99.99,,,-99.99,873.760010,,2013-04-30 21:22:00,
2013-04-30 15:32:00,90.0,18.0,29.77,SSW,212,6.0,15.0,7,-99.99,,,-99.99,822.159973,,2013-04-30 21:32:00,
2013-04-30 15:42:00,91.0,16.0,29.76,WSW,246,16.0,30.0,6,-99.99,,,-99.99,814.489990,,2013-04-30 21:42:00,
2013-04-30 15:53:00,91.0,16.0,29.76,WSW,246,16.0,30.0,6,-99.99,,,-99.99,814.489990,,2013-04-30 21:53:00,
2013-04-30 16:02:00,91.0,16.0,29.76,West,262,15.0,25.0,6,-99.99,,,-99.99,771.250000,,2013-04-30 22:02:00,
2013-04-30 16:12:00,91.0,16.0,29.76,West,262,15.0,25.0,6,-99.99,,,-99.99,771.250000,,2013-04-30 22:12:00,
2013-04-30 16:23:00,91.0,16.0,29.76,West,262,15.0,25.0,6,-99.99,,,-99.99,771.250000,,2013-04-30 22:23:00,
2013-04-30 16:32:00,91.0,16.0,29.75,WNW,285,12.0,20.0,6,-99.99,,,-99.99,698.030029,,2013-04-30 22:32:00,
2013-04-30 16:42:00,91.0,16.0,29.74,WSW,252,14.0,25.0,6,-99.99,,,-99.99,656.190002,,2013-04-30 22:42:00,
2013-04-30 16:53:00,91.0,16.0,29.74,WSW,252,14.0,25.0,6,-99.99,,,-99.99,656.190002,,2013-04-30 22:53:00,
2013-04-30 17:02:00,91.0,16.0,29.74,West,270,15.0,25.0,6,-99.99,,,-99.99,588.549988,,2013-04-30 23:02:00,
2013-04-30 17:12:00,90.0,15.0,29.74,West,279,17.0,28.0,6,-99.99,,,-99.99,564.840027,,2013-04-30 23:12:00,
2013-04-30 17:22:00,90.0,15.0,29.74,West,279,17.0,28.0,6,-99.99,,,-99.99,564.840027,,2013-04-30 23:22:00,
2013-04-30 17:32:00,90.0,15.0,29.74,WSW,256,17.0,28.0,6,-99.99,,,-99.99,518.820007,,2013-04-30 23:32:00,
2013-04-30 17:42:00,90.0,15.0,29.74,West,260,14.0,28.0,6,-99.99,,,-99.99,464.420013,,2013-04-30 23:42:00,
2013-04-30 17:52:00,90.0,15.0,29.74,West,260,14.0,28.0,6,-99.99,,,-99.99,464.420013,,2013-04-30 23:52:00,
2013-04-30 18:02:00,90.0,15.0,29.74,WSW,248,16.0,25.0,6,-99.99,,,-99.99,306.130005,,2013-05-01 00:02:00,
2013-04-30 18:11:00,89.0,14.0,29.74,West,277,15.0,25.0,6,-99.99,,,-99.99,118.550003,,2013-05-01 00:11:00,
2013-04-30 18:22:00,89.0,14.0,29.74,West,277,15.0,25.0,6,-99.99,,,-99.99,118.550003,,2013-05-01 00:22:00,
2013-04-30 18:32:00,89.0,14.0,29.74,West,277,15.0,25.0,6,-99.99,,,-99.99,118.550003,,2013-05-01 00:32:00,
2013-04-30 18:42:00,89.0,14.0,29.74,West,260,15.0,24.0,6,-99.99,,,-99.99,251.740005,,2013-05-01 00:42:00,
2013-04-30 18:52:00,88.0,14.0,29.75,WSW,255,17.0,30.0,6,-99.99,,,-99.99,217.570007,,2013-05-01 00:52:00,
2013-04-30 19:01:00,88.0,14.0,29.75,WSW,255,17.0,30.0,6,-99.99,,,-99.99,217.570007,,2013-05-01 01:01:00,
2013-04-30 19:11:00,87.0,14.0,29.75,West,276,17.0,27.0,6,-99.99,,,-99.99,100.419998,,2013-05-01 01:11:00,
2013-04-30 19:21:00,87.0,14.0,29.75,West,276,17.0,27.0,6,-99.99,,,-99.99,100.419998,,2013-05-01 01:21:00,
2013-04-30 19:31:00,87.0,14.0,29.75,West,263,14.0,22.0,6,-99.99,,,-99.99,36.959999,,2013-05-01 01:31:00,
2013-04-30 19:42:00,86.0,14.0,29.76,WSW,253,15.0,26.0,6,-99.99,,,-99.99,37.660000,,2013-05-01 01:42:00,
2013-04-30 19:52:00,86.0,14.0,29.76,WSW,253,15.0,26.0,6,-99.99,,,-99.99,37.660000,,2013-05-01 01:52:00,
2013-04-30 20:02:00,85.0,14.0,29.76,WSW,257,12.0,20.0,6,-99.99,,,-99.99,37.660000,,2013-05-01 02:02:00,
2013-04-30 20:11:00,84.0,14.0,29.76,WSW,243,13.0,20.0,7,-99.99,,,-99.99,9.760000,,2013-05-01 02:11:00,
2013-04-30 20:21:00,84.0,14.0,29.76,WSW,243,13.0,20.0,7,-99.99,,,-99.99,9.760000,,2013-05-01 02:21:00,
2013-04-30 20:32:00,84.0,14.0,29.76,West,260,10.0,18.0,7,-99.99,,,-99.99,1.390000,,2013-05-01 02:32:00,
2013-04-30 20:42:00,83.0,15.0,29.77,West,266,13.0,25.0,7,-99.99,,,-99.99,0.000000,,2013-05-01 02:42:00,
2013-04-30 20:52:00,83.0,15.0,29.77,West,266,13.0,25.0,7,-99.99,,,-99.99,0.000000,,2013-05-01 02:52:00,
2013-04-30 21:01:00,83.0,15.0,29.77,West,272,13.0,22.0,7,-99.99,,,-99.99,0.000000,,2013-05-01 03:01:00,
2013-04-30 21:11:00,83.0,15.0,29.77,West,271,13.0,21.0,7,-99.99,,,-99.99,0.000000,,2013-05-01 03:11:00,
2013-04-30 21:21:00,83.0,15.0,29.77,West,271,13.0,21.0,7,-99.99,,,-99.99,0.000000,,2013-05-01 03:21:00,
2013-04-30 21:33:00,82.0,15.0,29.77,West,268,13.0,23.0,7,-99.99,,,-99.99,0.000000,,2013-05-01 03:33:00,
2013-04-30 21:43:00,82.0,15.0,29.77,West,272,13.0,22.0,7,-99.99,,,-99.99,0.000000,,2013-05-01 03:43:00,
2013-04-30 21:53:00,82.0,15.0,29.77,West,272,13.0,22.0,7,-99.99,,,-99.99,0.000000,,2013-05-01 03:53:00,
2013-04-30 22:03:00,82.0,15.0,29.78,West,272,12.0,22.0,8,-99.99,,,-99.99,0.000000,,2013-05-01 04:03:00,
2013-04-30 22:12:00,82.0,15.0,29.78,West,275,12.0,19.0,8,-99.99,,,-99.99,0.000000,,2013-05-01 04:12:00,
2013-04-30 22:22:00,82.0,15.0,29.78,West,275,12.0,19.0,8,-99.99,,,-99.99,0.000000,,2013-05-01 04:22:00,
2013-04-30 22:32:00,81.0,15.0,29.79,West,273,11.0,19.0,8,-99.99,,,-99.99,0.000000,,2013-05-01 04:32:00,
2013-04-30 22:42:00,81.0,15.0,29.79,West,276,12.0,18.0,8,-99.99,,,-99.99,0.000000,,2013-05-01 04:42:00,
2013-04-30 22:52:00,81.0,15.0,29.79,West,276,12.0,18.0,8,-99.99,,,-99.99,0.000000,,2013-05-01 04:52:00,
2013-04-30 23:02:00,81.0,15.0,29.79,WNW,282,14.0,23.0,8,-99.99,,,-99.99,0.000000,,2013-05-01 05:02:00,
2013-04-30 23:11:00,81.0,15.0,29.78,West,281,15.0,25.0,8,-99.99,,,-99.99,0.000000,,2013-05-01 05:11:00,
2013-04-30 23:21:00,81.0,15.0,29.78,West,281,15.0,25.0,8,-99.99,,,-99.99,0.000000,,2013-05-01 05:21:00,
2013-04-30 23:32:00,81.0,15.0,29.79,WNW,285,13.0,21.0,8,-99.99,,,-99.99,0.000000,,2013-05-01 05:32:00,
2013-04-30 23:41:00,79.0,15.0,29.79,WNW,296,7.0,17.0,8,-99.99,,,-99.99,0.000000,,2013-05-01 05:41:00,
2013-04-30 23:52:00,79.0,15.0,29.79,WNW,296,7.0,17.0,8,-99.99,,,-99.99,0.000000,,2013-05-01 05:52:00,